This is the latest recevied weather packets stored in our database for station/object KD9JJA. If no packets are shown the sender has not sent any weather packets the latest 10 day(s).
| Time | Temp. | Humidity | Pressure | Rain* | Wind** | Luminosity | Snow |
|---|---|---|---|---|---|---|---|
| 1777311236 | 20.56° C | 77% | 1012.4 hPa | 0 mm | - | 42 W/m² | - |
| 1777310934 | 20.56° C | 79% | 1012.3 hPa | 0 mm | - | 36 W/m² | - |
| 1777310626 | 20.56° C | 78% | 1012.4 hPa | 0 mm | - | 35 W/m² | - |
| 1777310323 | 20.56° C | 76% | 1012.9 hPa | 0 mm | - | 44 W/m² | - |
| 1777310020 | 20.56° C | 76% | 1013.3 hPa | 0 mm | - | 65 W/m² | - |
| 1777309718 | 20.56° C | 75% | 1013.4 hPa | 0 mm | - | 90 W/m² | - |
| 1777309415 | 20.56° C | 75% | 1013.6 hPa | 0 mm | - | 105 W/m² | - |
| 1777309113 | 20.56° C | 75% | 1013.6 hPa | 0 mm | - | 87 W/m² | - |
| 1777308810 | 20.56° C | 75% | 1013.7 hPa | 0 mm | - | 59 W/m² | - |
| 1777308505 | 20.56° C | 75% | 1013.9 hPa | 0 mm | - | 62 W/m² | - |
| 1777308200 | 20.56° C | 75% | 1013.9 hPa | 0 mm | - | 88 W/m² | - |
| 1777307896 | 21.11° C | 73% | 1014.2 hPa | 0 mm | - | 85 W/m² | - |
| 1777307595 | 20.56° C | 75% | 1014.1 hPa | 0 mm | - | 80 W/m² | - |
| 1777307286 | 20.56° C | 74% | 1014.3 hPa | 0 mm | - | 84 W/m² | - |
| 1777306984 | 20.56° C | 74% | 1014.3 hPa | 0 mm | - | 110 W/m² | - |
| 1777306680 | 20.56° C | 74% | 1014.3 hPa | 0 mm | - | 112 W/m² | - |
| 1777306377 | 20.56° C | 74% | 1014.7 hPa | 0 mm | - | 107 W/m² | - |
| 1777306072 | 20.56° C | 73% | 1014.6 hPa | 0 mm | - | 113 W/m² | - |
| 1777305769 | 20.56° C | 74% | 1014.7 hPa | 0 mm | - | 142 W/m² | - |
| 1777305464 | 20.56° C | 74% | 1014.5 hPa | 0 mm | - | 196 W/m² | - |
| 1777305159 | 20° C | 74% | 1014.4 hPa | 0 mm | - | 184 W/m² | - |
| 1777304853 | 20° C | 76% | 1014.3 hPa | 0 mm | - | 192 W/m² | - |
| 1777304551 | 19.44° C | 76% | 1014.2 hPa | 0 mm | - | 160 W/m² | - |
| 1777304242 | 19.44° C | 77% | 1014.6 hPa | 0 mm | - | 146 W/m² | - |
| 1777303940 | 18.89° C | 77% | 1014.7 hPa | 0 mm | - | 133 W/m² | - |
* Rain latest hour (hover to see other rain measurements)
** Current wind speed in m/s (hover to see current wind gust speed)